• In Netherlands
  • List of Countries
  • For 7 days
  • Water Temperature
  • Satellite Maps
  • Weather Map
  • Weather Widgets
  • user-avatar
    Login

    Hourly Weather Konstantyna

    Today, 21 July, Friday

    Time Temperature Precipitation Wind Pressure Humidity
    00:00 +28°C° 0 mm 1 mps 708 mmHg 53%
    01:00 +28°C° 0 mm 1 mps 708 mmHg 53%
    02:00 +28°C° 0 mm 1 mps 708 mmHg 53%
    03:00 +27°C° 0 mm 1 mps 707 mmHg 53%
    04:00 +28°C° 0 mm 1 mps 708 mmHg 51%
    05:00 +28°C° 0 mm 1 mps 708 mmHg 50%
    06:00 +28°C° 0 mm 1 mps 708 mmHg 49%
    07:00 +30°C° 0 mm 1 mps 708 mmHg 44%
    08:00 +32°C° 0 mm 2 mps 709 mmHg 39%
    09:00 +34°C° 0 mm 2 mps 709 mmHg 33%
    10:00 +36°C° 0 mm 2 mps 709 mmHg 30%
    11:00 +37°C° 0 mm 3 mps 710 mmHg 26%
    12:00 +38°C° 0 mm 3 mps 710 mmHg 23%
    13:00 +38°C° 0 mm 3 mps 710 mmHg 25%
    14:00 +37°C° 0 mm 3 mps 710 mmHg 27%
    15:00 +37°C° 0 mm 3 mps 710 mmHg 28%
    16:00 +36°C° 0 mm 3 mps 709 mmHg 31%
    17:00 +35°C° 0 mm 3 mps 709 mmHg 34%
    18:00 +35°C° 0 mm 3 mps 709 mmHg 36%
    19:00 +34°C° 0 mm 2 mps 709 mmHg 40%
    20:00 +31°C° 0 mm 2 mps 710 mmHg 43%
    21:00 +30°C° 0 mm 2 mps 710 mmHg 47%
    22:00 +30°C° 0 mm 2 mps 710 mmHg 47%
    23:00 +30°C° 0 mm 1 mps 710 mmHg 48%

    Tomorrow, 22 July, Saturday

    Time Temperature Precipitation Wind Pressure Humidity
    00:00 +29°C° 0 mm 1 mps 710 mmHg 49%
    01:00 +29°C° 0 mm 1 mps 710 mmHg 47%
    02:00 +29°C° 0 mm 1 mps 710 mmHg 46%
    03:00 +29°C° 0 mm 1 mps 709 mmHg 45%
    04:00 +30°C° 0 mm 1 mps 710 mmHg 41%
    05:00 +31°C° 0 mm 2 mps 710 mmHg 38%
    06:00 +31°C° 0 mm 2 mps 711 mmHg 34%
    07:00 +34°C° 0 mm 2 mps 711 mmHg 30%
    08:00 +36°C° 0 mm 3 mps 712 mmHg 26%
    09:00 +39°C° 0 mm 3 mps 712 mmHg 22%
    10:00 +41°C° 0 mm 4 mps 712 mmHg 20%
    11:00 +43°C° 0 mm 5 mps 712 mmHg 18%
    12:00 +45°C° 0 mm 5 mps 712 mmHg 15%
    13:00 +45°C° 0 mm 5 mps 712 mmHg 16%
    14:00 +45°C° 0 mm 5 mps 712 mmHg 17%
    15:00 +43°C° 0 mm 5 mps 712 mmHg 18%
    16:00 +42°C° 0 mm 4 mps 712 mmHg 20%
    17:00 +41°C° 0 mm 4 mps 712 mmHg 21%
    18:00 +39°C° 0 mm 3 mps 712 mmHg 23%
    19:00 +38°C° 0 mm 3 mps 712 mmHg 26%
    20:00 +36°C° 0 mm 3 mps 712 mmHg 28%
    21:00 +35°C° 0 mm 2 mps 712 mmHg 31%
    22:00 +35°C° 0.1 mm 2 mps 712 mmHg 31%
    23:00 +34°C° 0.1 mm 2 mps 712 mmHg 30%

    Day after tomorrow, 23 July, Sunday

    Time Temperature Precipitation Wind Pressure Humidity
    00:00 +34°C° 0.1 mm 3 mps 712 mmHg 30%
    01:00 +34°C° 0.1 mm 2 mps 712 mmHg 29%
    02:00 +34°C° 0.1 mm 2 mps 712 mmHg 28%
    03:00 +34°C° 0.1 mm 2 mps 712 mmHg 27%
    04:00 +34°C° 0 mm 2 mps 712 mmHg 27%
    05:00 +35°C° 0 mm 2 mps 712 mmHg 27%
    06:00 +35°C° 0 mm 2 mps 713 mmHg 27%
    07:00 +37°C° 0 mm 3 mps 713 mmHg 24%
    08:00 +40°C° 0 mm 4 mps 713 mmHg 20%
    09:00 +42°C° 0 mm 5 mps 713 mmHg 17%
    10:00 +44°C° 0 mm 6 mps 713 mmHg 16%
    11:00 +45°C° 0 mm 6 mps 713 mmHg 14%
    12:00 +47°C° 0 mm 6 mps 713 mmHg 12%
    13:00 +46°C° 0 mm 6 mps 713 mmHg 13%
    14:00 +46°C° 0 mm 6 mps 713 mmHg 14%
    15:00 +45°C° 0 mm 5 mps 712 mmHg 14%
    16:00 +43°C° 0 mm 4 mps 712 mmHg 17%
    17:00 +42°C° 0 mm 4 mps 712 mmHg 19%
    18:00 +40°C° 0 mm 3 mps 712 mmHg 21%
    19:00 +38°C° 0 mm 3 mps 712 mmHg 25%
    20:00 +37°C° 0 mm 3 mps 712 mmHg 29%
    21:00 +35°C° 0 mm 3 mps 712 mmHg 33%
    22:00 +35°C° 0.1 mm 3 mps 712 mmHg 31%
    23:00 +35°C° 0.1 mm 4 mps 712 mmHg 30%

    24 July, Monday

    Time Temperature Precipitation Wind Pressure Humidity
    00:00 +35°C° 0.1 mm 4 mps 712 mmHg 28%
    01:00 +34°C° 0.1 mm 4 mps 712 mmHg 30%
    02:00 +34°C° 0.1 mm 3 mps 711 mmHg 32%
    03:00 +33°C° 0.1 mm 3 mps 711 mmHg 34%
    04:00 +33°C° 0 mm 3 mps 711 mmHg 37%
    05:00 +31°C° 0 mm 2 mps 711 mmHg 40%
    06:00 +31°C° 0 mm 2 mps 711 mmHg 43%
    07:00 +33°C° 0 mm 3 mps 711 mmHg 40%
    08:00 +35°C° 0 mm 4 mps 712 mmHg 37%
    09:00 +36°C° 0 mm 4 mps 712 mmHg 34%
    10:00 +37°C° 0 mm 5 mps 712 mmHg 32%
    11:00 +39°C° 0 mm 5 mps 712 mmHg 31%
    12:00 +40°C° 0 mm 6 mps 712 mmHg 29%
    13:00 +39°C° 0 mm 6 mps 711 mmHg 33%
    14:00 +37°C° 0 mm 5 mps 711 mmHg 36%
    15:00 +36°C° 0 mm 5 mps 711 mmHg 40%
    16:00 +34°C° 0 mm 5 mps 710 mmHg 45%
    17:00 +33°C° 0 mm 4 mps 710 mmHg 50%
    18:00 +30°C° 0 mm 4 mps 710 mmHg 55%
    19:00 +29°C° 0.5 mm 3 mps 710 mmHg 59%
    20:00 +27°C° 0.5 mm 3 mps 711 mmHg 64%
    21:00 +26°C° 0.5 mm 2 mps 711 mmHg 69%
    22:00 +26°C° 0.1 mm 2 mps 711 mmHg 71%
    23:00 +25°C° 0.1 mm 2 mps 710 mmHg 74%

    25 July, Tuesday

    Time Temperature Precipitation Wind Pressure Humidity
    00:00 +25°C° 0.1 mm 2 mps 710 mmHg 76%
    01:00 +24°C° 0 mm 2 mps 710 mmHg 79%
    02:00 +24°C° 0 mm 1 mps 709 mmHg 81%
    03:00 +23°C° 0 mm 1 mps 709 mmHg 83%
    04:00 +23°C° 0 mm 1 mps 709 mmHg 82%
    05:00 +23°C° 0 mm 1 mps 710 mmHg 81%
    06:00 +23°C° 0 mm 1 mps 710 mmHg 79%
    07:00 +25°C° 0 mm 1 mps 710 mmHg 68%
    08:00 +27°C° 0 mm 1 mps 710 mmHg 57%
    09:00 +29°C° 0 mm 1 mps 710 mmHg 46%
    10:00 +30°C° 0 mm 2 mps 710 mmHg 41%
    11:00 +32°C° 0 mm 2 mps 710 mmHg 36%
    12:00 +34°C° 0 mm 3 mps 710 mmHg 31%
    13:00 +34°C° 0 mm 4 mps 710 mmHg 32%
    14:00 +34°C° 0 mm 4 mps 709 mmHg 33%
    15:00 +34°C° 0 mm 4 mps 709 mmHg 34%
    16:00 +33°C° 0 mm 4 mps 709 mmHg 41%
    17:00 +30°C° 0 mm 4 mps 709 mmHg 47%
    18:00 +29°C° 0 mm 4 mps 709 mmHg 54%
    19:00 +27°C° 0 mm 3 mps 709 mmHg 58%
    20:00 +26°C° 0 mm 3 mps 709 mmHg 62%
    21:00 +25°C° 0 mm 2 mps 709 mmHg 67%
    22:00 +25°C° 0 mm 2 mps 709 mmHg 68%
    23:00 +24°C° 0 mm 2 mps 709 mmHg 70%

    26 July, Wednesday

    Time Temperature Precipitation Wind Pressure Humidity
    00:00 +24°C° 0 mm 1 mps 708 mmHg 72%
    01:00 +23°C° 0 mm 1 mps 708 mmHg 74%
    02:00 +23°C° 0 mm 1 mps 708 mmHg 75%
    03:00 +23°C° 0 mm 1 mps 708 mmHg 77%
    04:00 +22°C° 0 mm 1 mps 709 mmHg 77%
    05:00 +22°C° 0 mm 1 mps 709 mmHg 76%
    06:00 +22°C° 0 mm 1 mps 709 mmHg 76%
    07:00 +24°C° 0 mm 1 mps 710 mmHg 68%
    08:00 +25°C° 0 mm 1 mps 710 mmHg 59%
    09:00 +27°C° 0 mm 1 mps 710 mmHg 51%
    10:00 +28°C° 0 mm 2 mps 710 mmHg 46%
    11:00 +30°C° 0 mm 3 mps 710 mmHg 40%
    12:00 +31°C° 0 mm 3 mps 710 mmHg 35%
    13:00 +33°C° 0 mm 4 mps 710 mmHg 35%
    14:00 +33°C° 0 mm 4 mps 710 mmHg 34%
    15:00 +33°C° 0 mm 4 mps 710 mmHg 34%
    16:00 +32°C° 0 mm 4 mps 710 mmHg 38%
    17:00 +30°C° 0 mm 4 mps 710 mmHg 42%
    18:00 +29°C° 0 mm 4 mps 710 mmHg 46%
    19:00 +28°C° 0 mm 3 mps 710 mmHg 50%
    20:00 +27°C° 0 mm 2 mps 710 mmHg 54%
    21:00 +25°C° 0 mm 2 mps 710 mmHg 58%
    22:00 +25°C° 0 mm 1 mps 710 mmHg 60%
    23:00 +25°C° 0 mm 1 mps 710 mmHg 61%
    Show more